AirNav   Air Wisconsin pilot careers
 
 757 users online  

SC45 Gilbert International Airpark
Gilbert, South Carolina, USA

GOING TO GILBERT?


FAA INFORMATION EFFECTIVE 23 MAY 2019

Location

FAA Identifier: SC45
Lat/Long: 33-53-02.5270N / 081-22-54.3660W
33-53.042117N / 081-22.906100W
33.8840353 / -81.3817683
(estimated)
Elevation: 551 ft. / 168 m (estimated)
Variation: 04W (1985)
From city: 2 miles S of GILBERT, SC
Time zone: UTC -4 (UTC -5 during Standard Time)
Zip code: 29054

Airport Operations

Airport use: Private use. Permission required prior to landing
Activation date: 11/1990
Control tower: no
ARTCC: JACKSONVILLE CENTER
FSS: ANDERSON FLIGHT SERVICE STATION
Attendance: UNATNDD
Wind indicator: yes
Segmented circle: no
Lights: ACTVT MIRL RY 09/27 - 122.85

Airport Communications

WX ASOS at CAE (13 nm E): PHONE 803-822-4168
WX ASOS at CUB (20 nm E): 118.675 (803-929-0665)

Nearby radio navigation aids

VOR radial/distance  VOR name  Freq  Var
CAEr278/16.4COLUMBIA VORTAC114.7002W
MMTr273/29.0MC ENTIRE VORTAC113.2008W

 
NDB name  Hdg/Dist  Freq  Var  ID
MURRY241/8.436207WCA -.-. .-
AIKEN053/20.334706WAIK .- .. -.-
ENOREE161/28.627807WEOE . --- .
EMORY055/39.838504WEMR . -- .-.

Airport Services

Runway Information

Runway 9/27

Dimensions: 3000 x 75 ft. / 914 x 23 m
Surface: turf, in fair condition
Runway edge lights: low intensity
RUNWAY 9  RUNWAY 27
Traffic pattern: leftleft
Obstructions: 50 ft. trees, 300 ft. from runway50 ft. trees, 50 ft. from runway

Airport Ownership and Management from official FAA records

Ownership: Privately-owned
Owner: GILBERT INT'L AIRPARK HO ASSOC.
231 UPWIND LEG RD
GILBERT, SC 29054-8555
Phone 803-657-8262
CONTACT PERSONS: MR. PHIL LUMPKIN/803-657-7797 OR MR. DAVID HARDY/803-657-7108.
Manager: DAVID HARDY, ASSOCIATION PRESIDENT
376 DOWNWIND LEE RD
GILBERT, SC 29054
Phone 803-463-7662

Airport Operational Statistics

Aircraft based on the field: 17
Single engine airplanes: 16
Multi engine airplanes: 1
    

Additional Remarks

LIGHTED PORTION OF RWY IS 2400 FT; 300FT OVER RUN EACH END.

Instrument Procedures

There are no published instrument procedures at SC45.

Some nearby airports with instrument procedures:

6J0 - Lexington County Airport (9 nm SE)
KCAE - Columbia Metropolitan Airport (13 nm E)
KCUB - Jim Hamilton L B Owens Airport (20 nm E)
KAIK - Aiken Regional Airport (21 nm SW)
6J4 - Saluda County Airport (21 nm W)
 
Loc | Ops | Rwys | IFR | FBO | Links
Com | Nav | Svcs | Stats | Notes
Area around SC45 (Gilbert International Airpark)
 
Road maps at: MapQuest Bing Google
 
Aerial photo
WARNING: Photo may not be current or correct
Aerial photo of SC45 (Gilbert International Airpark)
Taken in the Summer of 2009

Do you have a better or more recent aerial photo of Gilbert International Airpark that you would like to share? If so, please send us your photo.

 
Sectional chart

 
Airport distance calculator
Flying to Gilbert International Airpark? Find the distance to fly.

From to SC45

Sunrise and sunset
Times for 26-May-2019
 Local
(UTC-4)
 Zulu
(UTC)
Morning civil twilight05:5009:50
Sunrise06:1910:19
Sunset20:2600:26
Evening civil twilight20:5500:55

Current date and time
Zulu (UTC)  27-May-2019 03:03:30
Local (UTC-4)  26-May-2019 23:03:30
 
METAR
KCAE 
14nm E 
270256Z 24003KT 9SM CLR 25/15 A3002 RMK AO2 SLP160 T02500150 53004
KCUB 
20nm E 
270253Z AUTO 00000KT 10SM CLR 26/15 A3002 RMK AO2 SLP164 T02610150 53004
KAIK 
21nm SW 
270255Z AUTO 00000KT 10SM CLR 25/16 A3008 RMK AO2
KXNO 
22nm SE 
262356Z AUTO 25003KT 10SM CLR 34/15 A3002 RMK AO2 SLP165 T03370147 10375 20337 55006 $
TAF
KCAE 
14nm E 
270123Z 2701/2724 27004KT P6SM SCT250 FM271500 30010G18KT P6SM SCT060
KCUB 
20nm E 
270123Z 2701/2724 VRB04KT P6SM SCT250 FM271500 30009G16KT P6SM SCT060
NOTAMs
Click for the latest NOTAMs
NOTAMs are issued by the DoD/FAA and will open in a separate window not controlled by AirNav.

 

 
 

Would you like to see your business listed on this page?

 If your business provides an interesting product or service to pilots, flight crews, aircraft, or users of the Gilbert International Airpark, you should consider listing it here.  To start the listing process, click on the button below
 
Add a business
 

Other Pages about Gilbert International Airpark

Update a link
 
Copyright © AirNav, LLC. All rights reserved. Privacy Policy  Contact